Location: Budapest
(47.4979°N, 19.0402°E)
Time: 17:11:07
(UTC+02:00)

N. Korean satellite - Pass Details

Date: 16 October 2017
Orbit: 459 x 517 km, 97.2° (Epoch: 22 October)

Event Time Altitude Azimuth Distance (km) Brightness Sun altitude
Rises 18:19:54 0° 155° (SSE) 2,535 10.0 -5.1°
Reaches altitude 10° 18:22:00 10° 150° (SSE) 1,650 9.0 -5.5°
Maximum altitude 18:25:26 52° 74° (ENE) 599 6.7 -6.1°
Drops below altitude 10° 18:28:52 10° 357° (N) 1,637 9.2 -6.6°
Sets 18:30:56 0° 352° (N) 2,512 10.2 -7.0°
